{"data":{"norad_id":57868,"intl_designator":"2023-144E","name":"STARLINK-30442","alt_names":[],"object_type":"PAYLOAD","status":"ACTIVE","operator":null,"country":"US","launch_date":"2023-09-16","launch_site_code":"AFETR","launch_vehicle":null,"mission":null,"orbit_class":"UNKNOWN","rcs_meters":null,"size_class":null,"mass_kg":null,"dimensions":null,"purposes":["comms"],"wikipedia_slug":null,"has_3d_model":false,"image_url":null,"decayed_at":null,"tle_current":{"epoch":"2026-05-24T21:44:06.832896Z","epoch_age_seconds":86462,"freshness":"FRESH","line1":"1 57868U 23144E   26144.90563464  .00000031  00000+0  10655-4 0  9996","line2":"2 57868  43.0021 214.7365 0001395 273.2882  86.7810 15.27575476149254","mean_motion":15.27575476,"eccentricity":0.0001395,"inclination_deg":43.0021,"raan_deg":214.7365,"arg_perigee_deg":273.2882,"mean_anomaly_deg":86.781,"bstar":1.0655e-5,"rev_number":14925,"period_min":94.267027889887,"perigee_km":482.10550520645,"apogee_km":484.01977990672,"semimajor_km":6861.1996425566,"source":"CELESTRAK","updated_at":"2026-05-25T13:38:18.446396Z"}}}